N783MM KIAH-KLAX

Flight info

Callsign N783MM
Flight time 3h 4m
Altitude 40000
Route PITZZ5 CRGER EWM J4 WLVRN ESTWD HLYWD1
Aircraft E190/M-SDE1E2E3FGHIJ3J4J7P2RWXY/LB1D1G1

Departure

Time 2026-04-20 22:23
Airport George Bush Intercontinental Airport (KIAH)

Arrival

Time 2026-04-21 01:27
Airport Los Angeles International Airport (KLAX)
Time Latitude Longitude Altitude Speed Heading
2026-04-20 21:41 29.96871 -95.35237 94 ft 0 kts 151°
2026-04-20 22:14 29.96869 -95.35236 94 ft 0 kts 151°
2026-04-20 22:15 29.96853 -95.35226 94 ft 4 kts 152°
2026-04-20 22:15 29.96834 -95.35194 94 ft 6 kts 88°
2026-04-20 22:15 29.96858 -95.35139 94 ft 8 kts 49°
2026-04-20 22:15 29.96912 -95.35145 94 ft 8 kts 332°
2026-04-20 22:16 29.96967 -95.35179 94 ft 9 kts 332°
2026-04-20 22:16 29.97028 -95.35215 95 ft 10 kts 331°
2026-04-20 22:16 29.97096 -95.35258 95 ft 11 kts 332°
2026-04-20 22:16 29.97171 -95.35303 95 ft 12 kts 333°
2026-04-20 22:17 29.97252 -95.35351 95 ft 13 kts 334°
2026-04-20 22:17 29.97339 -95.35404 96 ft 14 kts 332°
2026-04-20 22:17 29.97433 -95.35461 96 ft 15 kts 333°
2026-04-20 22:17 29.97533 -95.35521 96 ft 16 kts 332°
2026-04-20 22:18 29.97641 -95.35587 96 ft 17 kts 331°
2026-04-20 22:18 29.97754 -95.35656 97 ft 18 kts 331°
2026-04-20 22:18 29.97874 -95.35731 97 ft 20 kts 331°
2026-04-20 22:18 29.98000 -95.35809 97 ft 21 kts 334°
2026-04-20 22:19 29.98119 -95.35880 97 ft 14 kts 330°
2026-04-20 22:19 29.98213 -95.35941 98 ft 16 kts 330°
2026-04-20 22:19 29.98303 -95.36022 98 ft 16 kts 311°
2026-04-20 22:19 29.98396 -95.36108 98 ft 17 kts 335°
2026-04-20 22:20 29.98509 -95.36178 99 ft 18 kts 331°
2026-04-20 22:20 29.98627 -95.36247 99 ft 19 kts 334°
2026-04-20 22:20 29.98714 -95.36256 100 ft 9 kts 49°
2026-04-20 22:20 29.98719 -95.36249 100 ft 0 kts 59°
2026-04-20 22:21 29.98721 -95.36244 100 ft 2 kts 59°
2026-04-20 22:21 29.98743 -95.36198 100 ft 10 kts 63°
2026-04-20 22:21 29.98791 -95.36094 100 ft 16 kts 60°
2026-04-20 22:21 29.98825 -95.35970 99 ft 16 kts 112°
2026-04-20 22:22 29.98751 -95.35903 99 ft 10 kts 124°
2026-04-20 22:22 29.98761 -95.35823 99 ft 11 kts 59°
2026-04-20 22:22 29.98751 -95.35760 99 ft 10 kts 153°
2026-04-20 22:22 29.98525 -95.35628 98 ft 71 kts 152°
2026-04-20 22:23 29.97886 -95.35232 97 ft 133 kts 153°
2026-04-20 22:23 29.96943 -95.34667 288 ft 162 kts 150°
2026-04-20 22:23 29.95887 -95.34076 866 ft 177 kts 160°
2026-04-20 22:23 29.94634 -95.34006 1602 ft 194 kts 193°
2026-04-20 22:24 29.93445 -95.34946 2174 ft 225 kts 233°
2026-04-20 22:24 29.92818 -95.36652 3011 ft 236 kts 249°
2026-04-20 22:24 29.92106 -95.38377 3781 ft 250 kts 236°
2026-04-20 22:24 29.91014 -95.40125 4250 ft 279 kts 229°
2026-04-20 22:25 29.89767 -95.41823 4851 ft 279 kts 226°
2026-04-20 22:25 29.88423 -95.43428 4990 ft 278 kts 233°
2026-04-20 22:25 29.87365 -95.45400 5511 ft 300 kts 238°
2026-04-20 22:25 29.86304 -95.47468 6622 ft 299 kts 238°
2026-04-20 22:26 29.85293 -95.49483 7767 ft 294 kts 239°
2026-04-20 22:26 29.84300 -95.51520 8789 ft 293 kts 239°
2026-04-20 22:26 29.83304 -95.53572 9658 ft 297 kts 241°
2026-04-20 22:27 29.83304 -95.58215 11030 ft 315 kts 300°
2026-04-20 22:27 29.84422 -95.60393 11655 ft 324 kts 300°
2026-04-20 22:27 29.85577 -95.62682 12279 ft 334 kts 299°
2026-04-20 22:27 29.86743 -95.65024 12968 ft 340 kts 298°
2026-04-20 22:28 29.87923 -95.67403 13741 ft 343 kts 297°
2026-04-20 22:28 29.89099 -95.69784 14582 ft 343 kts 297°
2026-04-20 22:28 29.90260 -95.72131 15438 ft 341 kts 297°
2026-04-20 22:28 29.91420 -95.74480 16081 ft 341 kts 297°
2026-04-20 22:29 29.92600 -95.76870 16841 ft 341 kts 297°
2026-04-20 22:29 29.93756 -95.79217 17630 ft 340 kts 297°
2026-04-20 22:29 29.94914 -95.81569 18367 ft 340 kts 297°
2026-04-20 22:29 29.96079 -95.83935 19057 ft 341 kts 297°
2026-04-20 22:30 29.97255 -95.86324 19722 ft 343 kts 297°
2026-04-20 22:30 29.98423 -95.88701 20351 ft 345 kts 297°
2026-04-20 22:30 29.99603 -95.91103 20961 ft 348 kts 297°
2026-04-20 22:30 30.00804 -95.93549 21566 ft 350 kts 298°
2026-04-20 22:31 30.01994 -95.95974 22153 ft 352 kts 298°
2026-04-20 22:31 30.03196 -95.98425 22720 ft 354 kts 298°
2026-04-20 22:31 30.04401 -96.00882 23272 ft 356 kts 298°
2026-04-20 22:31 30.05620 -96.03371 23816 ft 358 kts 298°
2026-04-20 22:32 30.06820 -96.05918 24366 ft 359 kts 292°
2026-04-20 22:32 30.07424 -96.08677 24891 ft 362 kts 281°
2026-04-20 22:32 30.07871 -96.11526 25434 ft 364 kts 281°
2026-04-20 22:32 30.08320 -96.14407 25971 ft 366 kts 281°
2026-04-20 22:33 30.08768 -96.17302 26501 ft 368 kts 281°
2026-04-20 22:33 30.09215 -96.20189 27022 ft 370 kts 280°
2026-04-20 22:33 30.09662 -96.23116 27531 ft 371 kts 280°
2026-04-20 22:33 30.10115 -96.26037 28002 ft 370 kts 280°
2026-04-20 22:34 30.10570 -96.28982 28470 ft 374 kts 280°
2026-04-20 22:34 30.11023 -96.31928 28959 ft 377 kts 280°
2026-04-20 22:34 30.11482 -96.34924 29471 ft 379 kts 280°
2026-04-20 22:34 30.11937 -96.37889 29979 ft 381 kts 279°
2026-04-20 22:35 30.12402 -96.40936 30496 ft 382 kts 279°
2026-04-20 22:35 30.12876 -96.44039 30985 ft 384 kts 279°
2026-04-20 22:35 30.13338 -96.47063 31445 ft 386 kts 279°
2026-04-20 22:35 30.13803 -96.50121 31898 ft 388 kts 279°
2026-04-20 22:36 30.14272 -96.53210 32385 ft 389 kts 279°
2026-04-20 22:36 30.14734 -96.56253 32908 ft 388 kts 278°
2026-04-20 22:36 30.15196 -96.59306 33467 ft 385 kts 278°
2026-04-20 22:36 30.15653 -96.62323 34025 ft 383 kts 278°
2026-04-20 22:37 30.16108 -96.65338 34567 ft 380 kts 278°
2026-04-20 22:37 30.16568 -96.68391 35086 ft 378 kts 277°
2026-04-20 22:37 30.17010 -96.71328 35557 ft 376 kts 277°
2026-04-20 22:37 30.17454 -96.74288 36009 ft 375 kts 277°
2026-04-20 22:38 30.17900 -96.77254 36427 ft 375 kts 277°
2026-04-20 22:38 30.18343 -96.80220 36758 ft 374 kts 277°
2026-04-20 22:38 30.18783 -96.83156 37061 ft 375 kts 277°
2026-04-20 22:38 30.19225 -96.86121 37351 ft 375 kts 277°
2026-04-20 22:39 30.19667 -96.89086 37630 ft 375 kts 277°
2026-04-20 22:39 30.20113 -96.92084 37898 ft 375 kts 277°
2026-04-20 22:39 30.20551 -96.95029 38155 ft 375 kts 277°
2026-04-20 22:39 30.20989 -96.97981 38404 ft 374 kts 277°
2026-04-20 22:40 30.21428 -97.00944 38680 ft 374 kts 277°
2026-04-20 22:40 30.21867 -97.03919 38971 ft 374 kts 277°
2026-04-20 22:40 30.22300 -97.06847 39237 ft 375 kts 277°
2026-04-20 22:40 30.22745 -97.09834 39501 ft 375 kts 277°
2026-04-20 22:41 30.23188 -97.12801 39767 ft 376 kts 277°
2026-04-20 22:41 30.23626 -97.15736 40045 ft 376 kts 277°
2026-04-20 22:41 30.24068 -97.18706 40293 ft 375 kts 277°
2026-04-20 22:41 30.24518 -97.21732 40325 ft 382 kts 277°
2026-04-20 22:42 30.25427 -97.27863 40320 ft 394 kts 277°
2026-04-20 22:42 30.26362 -97.34184 40310 ft 406 kts 277°
2026-04-20 22:43 30.27313 -97.40639 40279 ft 406 kts 277°
2026-04-20 22:43 30.28254 -97.47047 40271 ft 406 kts 277°
2026-04-20 22:44 30.29195 -97.53481 40273 ft 406 kts 277°
2026-04-20 22:44 30.30127 -97.59877 40273 ft 406 kts 277°
2026-04-20 22:45 30.31060 -97.66298 40280 ft 406 kts 277°
2026-04-20 22:45 30.31990 -97.72723 40286 ft 406 kts 277°
2026-04-20 22:46 30.33343 -97.79106 40290 ft 407 kts 281°
2026-04-20 22:46 30.34689 -97.85426 40298 ft 407 kts 281°
2026-04-20 22:47 30.36035 -97.91797 40304 ft 407 kts 281°
2026-04-20 22:47 30.37373 -97.98146 40306 ft 408 kts 281°
2026-04-20 22:48 30.38714 -98.04523 40306 ft 408 kts 281°
2026-04-20 22:48 30.40042 -98.10859 40307 ft 408 kts 281°
2026-04-20 22:49 30.41378 -98.17248 40306 ft 409 kts 281°
2026-04-20 22:49 30.42713 -98.23650 40303 ft 409 kts 281°
2026-04-20 22:50 30.44039 -98.30026 40300 ft 409 kts 281°
2026-04-20 22:50 30.45394 -98.36409 40295 ft 409 kts 282°
2026-04-20 22:51 30.46813 -98.42758 40291 ft 409 kts 282°
2026-04-20 22:51 30.48228 -98.49120 40288 ft 409 kts 282°
2026-04-20 22:52 30.49637 -98.55473 40285 ft 409 kts 282°
2026-04-20 22:52 30.51048 -98.61849 40285 ft 409 kts 282°
2026-04-20 22:53 30.52462 -98.68256 40297 ft 409 kts 281°
2026-04-20 22:53 30.53866 -98.74631 40296 ft 409 kts 281°
2026-04-20 22:54 30.55263 -98.80989 40296 ft 409 kts 281°
2026-04-20 22:54 30.56666 -98.87395 40294 ft 410 kts 281°
2026-04-20 22:55 30.58061 -98.93777 40291 ft 410 kts 281°
2026-04-20 22:55 30.59453 -99.00165 40290 ft 410 kts 281°
2026-04-20 22:56 30.60844 -99.06560 40287 ft 410 kts 281°
2026-04-20 22:56 30.62229 -99.12948 40280 ft 410 kts 281°
2026-04-20 22:57 30.63616 -99.19360 40275 ft 410 kts 281°
2026-04-20 22:57 30.64999 -99.25768 40274 ft 411 kts 281°
2026-04-20 22:58 30.66389 -99.32225 40273 ft 411 kts 281°
2026-04-20 22:58 30.67768 -99.38650 40271 ft 411 kts 281°
2026-04-20 22:59 30.69143 -99.45071 40269 ft 411 kts 281°
2026-04-20 22:59 30.70513 -99.51488 40264 ft 411 kts 281°
2026-04-20 23:00 30.71888 -99.57941 40262 ft 411 kts 281°
2026-04-20 23:00 30.73249 -99.64346 40263 ft 412 kts 281°
2026-04-20 23:01 30.74628 -99.70855 40276 ft 412 kts 281°
2026-04-20 23:01 30.75988 -99.77289 40279 ft 412 kts 281°
2026-04-20 23:02 30.77346 -99.83733 40279 ft 412 kts 281°
2026-04-20 23:02 30.78706 -99.90205 40279 ft 412 kts 281°
2026-04-20 23:03 30.80059 -99.96654 40278 ft 412 kts 281°
2026-04-20 23:03 30.81413 -100.03130 40274 ft 412 kts 281°
2026-04-20 23:04 30.82762 -100.09598 40268 ft 413 kts 281°
2026-04-20 23:04 30.84103 -100.16042 40268 ft 414 kts 281°
2026-04-20 23:05 30.85453 -100.22549 40272 ft 414 kts 281°
2026-04-20 23:05 30.86801 -100.29069 40272 ft 415 kts 280°
2026-04-20 23:06 30.88139 -100.35549 40269 ft 415 kts 280°
2026-04-20 23:06 30.89477 -100.42055 40267 ft 415 kts 280°
2026-04-20 23:07 30.90811 -100.48553 40264 ft 415 kts 280°
2026-04-20 23:07 30.92144 -100.55067 40265 ft 415 kts 280°
2026-04-20 23:08 30.93473 -100.61575 40266 ft 415 kts 280°
2026-04-20 23:08 30.94812 -100.68154 40278 ft 415 kts 280°
2026-04-20 23:09 30.96125 -100.74626 40279 ft 415 kts 280°
2026-04-20 23:09 30.97453 -100.81184 40279 ft 415 kts 280°
2026-04-20 23:10 30.98765 -100.87681 40278 ft 415 kts 280°
2026-04-20 23:10 31.00085 -100.94240 40278 ft 415 kts 280°
2026-04-20 23:11 31.01388 -101.00732 40276 ft 415 kts 280°
2026-04-20 23:11 31.02702 -101.07291 40272 ft 415 kts 280°
2026-04-20 23:12 31.04004 -101.13816 40269 ft 415 kts 280°
2026-04-20 23:12 31.05310 -101.20377 40267 ft 415 kts 280°
2026-04-20 23:13 31.06607 -101.26906 40264 ft 415 kts 280°
2026-04-20 23:13 31.07897 -101.33423 40255 ft 416 kts 280°
2026-04-20 23:14 31.09191 -101.39979 40249 ft 416 kts 280°
2026-04-20 23:14 31.10490 -101.46579 40242 ft 416 kts 279°
2026-04-20 23:15 31.11778 -101.53137 40241 ft 416 kts 280°
2026-04-20 23:15 31.13058 -101.59682 40239 ft 417 kts 280°
2026-04-20 23:16 31.14346 -101.66278 40242 ft 417 kts 279°
2026-04-20 23:16 31.15623 -101.72839 40247 ft 417 kts 279°
2026-04-20 23:17 31.16902 -101.79433 40245 ft 417 kts 279°
2026-04-20 23:17 31.18178 -101.86025 40240 ft 417 kts 279°
2026-04-20 23:18 31.19450 -101.92618 40235 ft 417 kts 279°
2026-04-20 23:18 31.20711 -101.99176 40230 ft 417 kts 279°
2026-04-20 23:19 31.21973 -102.05753 40223 ft 417 kts 279°
2026-04-20 23:19 31.23240 -102.12378 40217 ft 417 kts 279°
2026-04-20 23:20 31.24496 -102.18964 40215 ft 417 kts 279°
2026-04-20 23:20 31.25746 -102.25545 40211 ft 418 kts 279°
2026-04-20 23:21 31.27006 -102.32188 40200 ft 418 kts 279°
2026-04-20 23:21 31.28254 -102.38794 40186 ft 418 kts 279°
2026-04-20 23:22 31.29500 -102.45403 40175 ft 418 kts 279°
2026-04-20 23:22 31.30744 -102.52025 40169 ft 418 kts 279°
2026-04-20 23:23 31.31984 -102.58645 40167 ft 418 kts 279°
2026-04-20 23:23 31.33221 -102.65269 40165 ft 418 kts 278°
2026-04-20 23:24 31.34460 -102.71924 40173 ft 418 kts 278°
2026-04-20 23:24 31.35688 -102.78541 40172 ft 418 kts 278°
2026-04-20 23:25 31.36910 -102.85143 40171 ft 418 kts 278°
2026-04-20 23:25 31.38133 -102.91775 40171 ft 418 kts 278°
2026-04-20 23:26 31.39354 -102.98411 40171 ft 418 kts 278°
2026-04-20 23:26 31.40563 -103.05006 40169 ft 418 kts 278°
2026-04-20 23:27 31.41779 -103.11659 40167 ft 418 kts 278°
2026-04-20 23:27 31.42987 -103.18288 40166 ft 419 kts 278°
2026-04-20 23:28 31.44192 -103.24919 40165 ft 419 kts 278°
2026-04-20 23:28 31.45401 -103.31593 40161 ft 419 kts 278°
2026-04-20 23:29 31.46600 -103.38236 40155 ft 419 kts 278°
2026-04-20 23:29 31.47801 -103.44904 40148 ft 419 kts 278°
2026-04-20 23:30 31.48997 -103.51572 40143 ft 419 kts 278°
2026-04-20 23:30 31.50189 -103.58234 40145 ft 419 kts 278°
2026-04-20 23:31 31.51378 -103.64905 40148 ft 419 kts 278°
2026-04-20 23:31 31.52564 -103.71575 40162 ft 419 kts 278°
2026-04-20 23:32 31.53752 -103.78279 40167 ft 420 kts 278°
2026-04-20 23:32 31.54927 -103.84936 40170 ft 420 kts 278°
2026-04-20 23:33 31.56105 -103.91628 40173 ft 420 kts 278°
2026-04-20 23:33 31.57281 -103.98332 40177 ft 420 kts 278°
2026-04-20 23:34 31.58447 -104.04995 40183 ft 420 kts 278°
2026-04-20 23:34 31.59615 -104.11691 40191 ft 420 kts 278°
2026-04-20 23:35 31.61358 -104.21729 40206 ft 419 kts 278°
2026-04-20 23:36 31.62511 -104.28398 40217 ft 419 kts 278°
2026-04-20 23:36 31.63662 -104.35078 40131 ft 419 kts 278°
2026-04-20 23:37 31.64813 -104.41775 40028 ft 419 kts 278°
2026-04-20 23:37 31.65961 -104.48478 40018 ft 419 kts 278°
2026-04-20 23:38 31.67107 -104.55192 40030 ft 420 kts 278°
2026-04-20 23:38 31.68245 -104.61879 40043 ft 419 kts 278°
2026-04-20 23:39 31.69389 -104.68629 40068 ft 419 kts 278°
2026-04-20 23:39 31.70520 -104.75323 40093 ft 418 kts 277°
2026-04-20 23:40 31.71644 -104.81995 40084 ft 418 kts 277°
2026-04-20 23:40 31.72767 -104.88683 40048 ft 418 kts 278°
2026-04-20 23:41 31.73885 -104.95367 39999 ft 417 kts 278°
2026-04-20 23:41 31.74996 -105.02028 39970 ft 417 kts 278°
2026-04-20 23:42 31.76097 -105.08656 39985 ft 417 kts 278°
2026-04-20 23:42 31.77206 -105.15350 39990 ft 417 kts 278°
2026-04-20 23:43 31.78306 -105.22015 39992 ft 417 kts 278°
2026-04-20 23:43 31.79403 -105.28686 39995 ft 417 kts 278°
2026-04-20 23:44 31.80495 -105.35348 40000 ft 417 kts 278°
2026-04-20 23:44 31.81586 -105.42024 40008 ft 417 kts 278°
2026-04-20 23:45 31.82669 -105.48673 40021 ft 416 kts 278°
2026-04-20 23:45 31.83755 -105.55366 40029 ft 416 kts 278°
2026-04-20 23:46 31.84835 -105.62048 40031 ft 416 kts 278°
2026-04-20 23:46 31.85910 -105.68721 40101 ft 416 kts 277°
2026-04-20 23:47 31.86978 -105.75366 40167 ft 416 kts 277°
2026-04-20 23:47 31.88045 -105.82034 40172 ft 416 kts 277°
2026-04-20 23:48 31.89112 -105.88731 40166 ft 416 kts 277°
2026-04-20 23:48 31.90173 -105.95404 40159 ft 416 kts 277°
2026-04-20 23:49 31.91233 -106.02098 40154 ft 416 kts 277°
2026-04-20 23:49 31.92285 -106.08765 40139 ft 416 kts 277°
2026-04-20 23:50 31.93335 -106.15444 40123 ft 416 kts 277°
2026-04-20 23:50 31.94378 -106.22106 40100 ft 416 kts 277°
2026-04-20 23:51 31.95340 -106.28821 40085 ft 415 kts 275°
2026-04-20 23:51 31.96153 -106.35507 40102 ft 415 kts 275°
2026-04-20 23:52 31.96944 -106.42233 40125 ft 415 kts 275°
2026-04-20 23:52 31.97725 -106.48918 40144 ft 415 kts 275°
2026-04-20 23:53 31.98506 -106.55633 40147 ft 415 kts 275°
2026-04-20 23:53 31.99284 -106.62363 40133 ft 415 kts 275°
2026-04-20 23:54 32.00058 -106.69078 40127 ft 414 kts 275°
2026-04-20 23:54 32.00824 -106.75768 40114 ft 414 kts 275°
2026-04-20 23:55 32.01593 -106.82503 40114 ft 414 kts 275°
2026-04-20 23:55 32.02353 -106.89200 40118 ft 416 kts 275°
2026-04-20 23:56 32.03114 -106.95942 40126 ft 417 kts 275°
2026-04-20 23:56 32.03876 -107.02714 40120 ft 417 kts 275°
2026-04-20 23:57 32.04628 -107.09440 40111 ft 417 kts 275°
2026-04-20 23:57 32.05382 -107.16207 40113 ft 417 kts 275°
2026-04-20 23:58 32.06129 -107.22948 40118 ft 417 kts 275°
2026-04-20 23:58 32.06873 -107.29700 40115 ft 417 kts 275°
2026-04-20 23:59 32.07616 -107.36478 40105 ft 417 kts 275°
2026-04-20 23:59 32.08350 -107.43205 40101 ft 417 kts 275°
2026-04-21 00:00 32.09085 -107.49965 40098 ft 417 kts 275°
2026-04-21 00:00 32.09815 -107.56727 40096 ft 416 kts 275°
2026-04-21 00:01 32.10542 -107.63491 40092 ft 416 kts 275°
2026-04-21 00:01 32.11263 -107.70231 40103 ft 416 kts 274°
2026-04-21 00:02 32.11982 -107.76984 40106 ft 416 kts 274°
2026-04-21 00:02 32.12696 -107.83730 40112 ft 415 kts 274°
2026-04-21 00:03 32.13403 -107.90449 40134 ft 415 kts 274°
2026-04-21 00:03 32.14106 -107.97161 40148 ft 410 kts 275°
2026-04-21 00:04 32.14795 -108.03777 40136 ft 405 kts 276°
2026-04-21 00:04 32.15478 -108.10361 40136 ft 405 kts 276°
2026-04-21 00:05 32.16157 -108.16936 40149 ft 406 kts 276°
2026-04-21 00:05 32.16833 -108.23525 40157 ft 406 kts 276°
2026-04-21 00:06 32.17506 -108.30124 40155 ft 406 kts 276°
2026-04-21 00:06 32.18175 -108.36707 40148 ft 406 kts 276°
2026-04-21 00:07 32.18844 -108.43329 40141 ft 407 kts 276°
2026-04-21 00:07 32.19506 -108.49921 40128 ft 407 kts 276°
2026-04-21 00:08 32.20169 -108.56547 40122 ft 407 kts 276°
2026-04-21 00:08 32.20823 -108.63130 40120 ft 406 kts 276°
2026-04-21 00:09 32.21481 -108.69779 40129 ft 406 kts 275°
2026-04-21 00:09 32.22132 -108.76402 40131 ft 406 kts 275°
2026-04-21 00:10 32.22775 -108.82979 40129 ft 406 kts 275°
2026-04-21 00:10 32.23419 -108.89593 40128 ft 406 kts 275°
2026-04-21 00:11 32.24057 -108.96191 40127 ft 406 kts 276°
2026-04-21 00:11 32.24693 -109.02800 40120 ft 406 kts 276°
2026-04-21 00:12 32.25325 -109.09412 40093 ft 405 kts 276°
2026-04-21 00:12 32.25950 -109.15974 40067 ft 405 kts 276°
2026-04-21 00:13 32.26572 -109.22546 40036 ft 404 kts 276°
2026-04-21 00:13 32.27798 -109.28986 40029 ft 406 kts 290°
2026-04-21 00:14 32.30007 -109.35105 40024 ft 405 kts 290°
2026-04-21 00:14 32.32162 -109.41245 40030 ft 405 kts 290°
2026-04-21 00:15 32.34304 -109.47374 40035 ft 405 kts 290°
2026-04-21 00:15 32.36443 -109.53507 40041 ft 404 kts 290°
2026-04-21 00:16 32.38576 -109.59639 40066 ft 403 kts 290°
2026-04-21 00:16 32.40695 -109.65739 40104 ft 403 kts 290°
2026-04-21 00:17 32.42819 -109.71866 40161 ft 402 kts 290°
2026-04-21 00:17 32.44929 -109.77962 40202 ft 402 kts 290°
2026-04-21 00:18 32.47036 -109.84061 40179 ft 402 kts 289°
2026-04-21 00:18 32.49151 -109.90198 40150 ft 402 kts 289°
2026-04-21 00:19 32.51249 -109.96294 40116 ft 402 kts 289°
2026-04-21 00:19 32.53357 -110.02432 40100 ft 402 kts 290°
2026-04-21 00:20 32.55448 -110.08534 40132 ft 402 kts 290°
2026-04-21 00:20 32.57569 -110.14728 40154 ft 411 kts 290°
2026-04-21 00:21 32.59731 -110.21061 40142 ft 415 kts 290°
2026-04-21 00:21 32.61879 -110.27364 40118 ft 416 kts 290°
2026-04-21 00:22 32.64059 -110.33766 40075 ft 420 kts 290°
2026-04-21 00:22 32.66226 -110.40149 40067 ft 420 kts 290°
2026-04-21 00:23 32.68408 -110.46588 40083 ft 420 kts 290°
2026-04-21 00:23 32.70584 -110.53029 40079 ft 421 kts 290°
2026-04-21 00:24 32.72749 -110.59444 40102 ft 422 kts 290°
2026-04-21 00:24 32.74935 -110.65931 40112 ft 423 kts 289°
2026-04-21 00:25 32.77109 -110.72392 40116 ft 423 kts 289°
2026-04-21 00:25 32.79279 -110.78866 40104 ft 423 kts 289°
2026-04-21 00:26 32.81450 -110.85346 40097 ft 424 kts 289°
2026-04-21 00:26 32.83621 -110.91846 40075 ft 424 kts 289°
2026-04-21 00:27 32.85788 -110.98348 40063 ft 424 kts 289°
2026-04-21 00:27 32.87960 -111.04871 40035 ft 425 kts 289°
2026-04-21 00:28 32.90122 -111.11374 39982 ft 425 kts 289°
2026-04-21 00:28 32.92284 -111.17907 40002 ft 425 kts 289°
2026-04-21 00:29 32.94441 -111.24434 40022 ft 426 kts 289°
2026-04-21 00:29 32.96612 -111.31010 39998 ft 426 kts 289°
2026-04-21 00:30 32.98764 -111.37545 39969 ft 426 kts 289°
2026-04-21 00:30 33.00917 -111.44095 39954 ft 426 kts 289°
2026-04-21 00:31 33.03069 -111.50658 39941 ft 426 kts 289°
2026-04-21 00:31 33.05208 -111.57192 39939 ft 427 kts 289°
2026-04-21 00:32 33.07367 -111.63804 39938 ft 428 kts 289°
2026-04-21 00:32 33.09526 -111.70428 39949 ft 428 kts 289°
2026-04-21 00:33 33.11682 -111.77057 39950 ft 429 kts 289°
2026-04-21 00:33 33.13818 -111.83639 39940 ft 429 kts 289°
2026-04-21 00:34 33.15972 -111.90288 39930 ft 429 kts 289°
2026-04-21 00:34 33.18117 -111.96927 39932 ft 430 kts 289°
2026-04-21 00:35 33.20251 -112.03545 39961 ft 430 kts 289°
2026-04-21 00:35 33.22402 -112.10229 40008 ft 433 kts 289°
2026-04-21 00:36 33.24564 -112.16962 40046 ft 435 kts 289°
2026-04-21 00:36 33.26709 -112.23656 40094 ft 435 kts 289°
2026-04-21 00:37 33.28869 -112.30413 40074 ft 436 kts 289°
2026-04-21 00:37 33.31025 -112.37172 40010 ft 436 kts 289°
2026-04-21 00:38 33.33174 -112.43924 39966 ft 436 kts 289°
2026-04-21 00:38 33.35322 -112.50687 39940 ft 437 kts 289°
2026-04-21 00:39 33.37473 -112.57474 39936 ft 437 kts 289°
2026-04-21 00:39 33.39618 -112.64256 39933 ft 438 kts 289°
2026-04-21 00:40 33.41784 -112.71124 39937 ft 438 kts 289°
2026-04-21 00:40 33.43930 -112.77940 39937 ft 439 kts 289°
2026-04-21 00:41 33.46141 -112.84712 39943 ft 440 kts 291°
2026-04-21 00:41 33.48574 -112.91444 39944 ft 436 kts 291°
2026-04-21 00:41 33.49739 -112.94695 39940 ft 425 kts 291°
2026-04-21 00:42 33.50907 -112.97959 39946 ft 423 kts 291°
2026-04-21 00:42 33.53218 -113.04427 39956 ft 425 kts 291°
2026-04-21 00:43 33.55553 -113.10976 39961 ft 427 kts 291°
2026-04-21 00:43 33.57875 -113.17501 39965 ft 428 kts 291°
2026-04-21 00:44 33.60196 -113.24039 39967 ft 429 kts 291°
2026-04-21 00:44 33.62524 -113.30608 39973 ft 431 kts 291°
2026-04-21 00:45 33.66034 -113.40537 39986 ft 433 kts 291°
2026-04-21 00:45 33.68392 -113.47224 39994 ft 435 kts 291°
2026-04-21 00:46 33.70735 -113.53885 39998 ft 437 kts 291°
2026-04-21 00:46 33.73100 -113.60619 39988 ft 438 kts 291°
2026-04-21 00:47 33.75465 -113.67370 39982 ft 440 kts 291°
2026-04-21 00:47 33.77838 -113.74156 39979 ft 441 kts 291°
2026-04-21 00:48 33.80199 -113.80929 39982 ft 442 kts 290°
2026-04-21 00:48 33.82519 -113.87749 39995 ft 444 kts 290°
2026-04-21 00:49 33.84864 -113.94651 39997 ft 445 kts 290°
2026-04-21 00:49 33.87190 -114.01514 39991 ft 446 kts 290°
2026-04-21 00:50 33.89519 -114.08397 39975 ft 446 kts 290°
2026-04-21 00:50 33.91233 -114.15537 39969 ft 445 kts 280°
2026-04-21 00:51 33.91853 -114.19188 39866 ft 443 kts 280°
2026-04-21 00:51 33.92462 -114.22778 39528 ft 442 kts 280°
2026-04-21 00:51 33.93077 -114.26405 39215 ft 442 kts 280°
2026-04-21 00:51 33.93691 -114.30028 38900 ft 442 kts 280°
2026-04-21 00:52 33.94296 -114.33607 38518 ft 441 kts 280°
2026-04-21 00:52 33.94904 -114.37213 38069 ft 440 kts 280°
2026-04-21 00:52 33.95513 -114.40828 37619 ft 440 kts 280°
2026-04-21 00:52 33.96117 -114.44423 37172 ft 439 kts 280°
2026-04-21 00:53 33.96720 -114.48013 36715 ft 439 kts 280°
2026-04-21 00:53 33.97321 -114.51603 36250 ft 439 kts 280°
2026-04-21 00:53 33.97920 -114.55187 35897 ft 437 kts 280°
2026-04-21 00:53 33.98518 -114.58768 35841 ft 438 kts 280°
2026-04-21 00:54 33.99716 -114.65970 35872 ft 441 kts 279°
2026-04-21 00:54 34.00920 -114.73235 35880 ft 440 kts 279°
2026-04-21 00:55 34.02106 -114.80418 35968 ft 441 kts 279°
2026-04-21 00:55 34.03297 -114.87662 35988 ft 442 kts 279°
2026-04-21 00:56 34.04490 -114.94939 35960 ft 441 kts 279°
2026-04-21 00:56 34.05673 -115.02184 35962 ft 441 kts 279°
2026-04-21 00:57 34.06851 -115.09413 35965 ft 440 kts 279°
2026-04-21 00:57 34.08022 -115.16620 35964 ft 440 kts 279°
2026-04-21 00:58 34.09188 -115.23826 35964 ft 439 kts 279°
2026-04-21 00:58 34.10358 -115.31085 35969 ft 438 kts 279°
2026-04-21 00:59 34.11513 -115.38279 35985 ft 437 kts 279°
2026-04-21 00:59 34.12656 -115.45424 36004 ft 436 kts 279°
2026-04-21 01:00 34.13801 -115.52615 35999 ft 435 kts 279°
2026-04-21 01:00 34.14365 -115.56166 36178 ft 434 kts 279°
2026-04-21 01:00 34.14933 -115.59742 36042 ft 427 kts 278°
2026-04-21 01:01 34.16031 -115.66831 35969 ft 432 kts 275°
2026-04-21 01:01 34.15897 -115.74044 35999 ft 429 kts 262°
2026-04-21 01:02 34.15554 -115.77591 35998 ft 418 kts 262°
2026-04-21 01:02 34.15228 -115.80974 35890 ft 400 kts 262°
2026-04-21 01:02 34.14901 -115.84344 35456 ft 416 kts 262°
2026-04-21 01:02 34.14566 -115.87796 35041 ft 414 kts 262°
2026-04-21 01:03 34.14232 -115.91226 34443 ft 413 kts 262°
2026-04-21 01:03 34.13898 -115.94654 33758 ft 411 kts 262°
2026-04-21 01:03 34.13563 -115.98078 33070 ft 410 kts 262°
2026-04-21 01:03 34.13235 -116.01439 32395 ft 411 kts 262°
2026-04-21 01:04 34.12899 -116.04864 31645 ft 412 kts 262°
2026-04-21 01:04 34.12562 -116.08305 30947 ft 414 kts 262°
2026-04-21 01:04 34.12221 -116.11769 30441 ft 417 kts 261°
2026-04-21 01:04 34.11880 -116.15228 29947 ft 415 kts 261°
2026-04-21 01:05 34.11538 -116.18676 29497 ft 415 kts 261°
2026-04-21 01:05 34.11201 -116.22077 29035 ft 414 kts 261°
2026-04-21 01:05 34.10859 -116.25507 28544 ft 412 kts 261°
2026-04-21 01:05 34.10519 -116.28921 28098 ft 409 kts 261°
2026-04-21 01:06 34.10165 -116.32311 27729 ft 407 kts 260°
2026-04-21 01:06 34.09806 -116.35679 27326 ft 406 kts 260°
2026-04-21 01:06 34.09447 -116.39042 26916 ft 403 kts 260°
2026-04-21 01:06 34.09090 -116.42374 26504 ft 401 kts 260°
2026-04-21 01:07 34.08733 -116.45699 26056 ft 400 kts 261°
2026-04-21 01:07 34.08378 -116.49004 25529 ft 398 kts 261°
2026-04-21 01:07 34.08023 -116.52291 25016 ft 395 kts 261°
2026-04-21 01:07 34.07669 -116.55560 24451 ft 396 kts 261°
2026-04-21 01:08 34.07320 -116.58813 23796 ft 395 kts 262°
2026-04-21 01:08 34.07016 -116.62080 23313 ft 385 kts 262°
2026-04-21 01:08 34.06724 -116.65234 22867 ft 383 kts 262°
2026-04-21 01:08 34.06425 -116.68453 22430 ft 383 kts 262°
2026-04-21 01:09 34.06129 -116.71640 21941 ft 380 kts 262°
2026-04-21 01:09 34.05836 -116.74777 21656 ft 376 kts 262°
2026-04-21 01:09 34.05543 -116.77911 21208 ft 377 kts 262°
2026-04-21 01:09 34.05253 -116.81007 20623 ft 372 kts 262°
2026-04-21 01:10 34.04963 -116.84084 20222 ft 367 kts 261°
2026-04-21 01:10 34.04678 -116.87103 19942 ft 365 kts 261°
2026-04-21 01:10 34.04346 -116.90147 19650 ft 364 kts 259°
2026-04-21 01:10 34.03957 -116.93147 19342 ft 362 kts 259°
2026-04-21 01:11 34.03574 -116.96107 19138 ft 358 kts 259°
2026-04-21 01:11 34.03192 -116.99053 19094 ft 359 kts 259°
2026-04-21 01:11 34.02806 -117.02021 18979 ft 363 kts 259°
2026-04-21 01:11 34.02436 -117.05049 18489 ft 362 kts 259°
2026-04-21 01:12 34.02084 -117.08018 17977 ft 358 kts 259°
2026-04-21 01:12 34.01738 -117.10938 17526 ft 353 kts 259°
2026-04-21 01:12 34.01390 -117.13873 17068 ft 350 kts 259°
2026-04-21 01:12 34.01049 -117.16740 16618 ft 347 kts 259°
2026-04-21 01:13 34.00707 -117.19607 16131 ft 345 kts 259°
2026-04-21 01:13 34.00370 -117.22428 15627 ft 342 kts 259°
2026-04-21 01:13 34.00033 -117.25243 15120 ft 339 kts 259°
2026-04-21 01:13 33.99698 -117.28037 14611 ft 337 kts 259°
2026-04-21 01:14 33.99367 -117.30801 14110 ft 333 kts 259°
2026-04-21 01:14 33.99047 -117.33531 13603 ft 324 kts 259°
2026-04-21 01:14 33.98737 -117.36170 13101 ft 317 kts 259°
2026-04-21 01:14 33.98428 -117.38789 12602 ft 315 kts 259°
2026-04-21 01:15 33.98123 -117.41383 12124 ft 314 kts 259°
2026-04-21 01:15 33.97818 -117.43968 11987 ft 311 kts 259°
2026-04-21 01:15 33.97515 -117.46524 11972 ft 313 kts 259°
2026-04-21 01:15 33.97347 -117.49148 11958 ft 319 kts 274°
2026-04-21 01:16 33.97770 -117.51805 11976 ft 322 kts 279°
2026-04-21 01:16 33.98236 -117.54428 11966 ft 322 kts 279°
2026-04-21 01:16 33.98706 -117.57080 11648 ft 324 kts 280°
2026-04-21 01:16 33.99179 -117.59744 11227 ft 320 kts 280°
2026-04-21 01:17 33.99635 -117.62319 10811 ft 314 kts 280°
2026-04-21 01:17 34.00085 -117.64864 10382 ft 306 kts 280°
2026-04-21 01:17 34.00517 -117.67324 10025 ft 294 kts 278°
2026-04-21 01:17 34.00529 -117.69697 9979 ft 280 kts 262°
2026-04-21 01:18 34.00310 -117.72066 9557 ft 284 kts 261°
2026-04-21 01:18 34.00088 -117.74408 9141 ft 284 kts 261°
2026-04-21 01:18 33.99861 -117.76754 8974 ft 278 kts 261°
2026-04-21 01:18 33.99635 -117.79077 8737 ft 285 kts 262°
2026-04-21 01:19 33.99403 -117.81437 8296 ft 284 kts 262°
2026-04-21 01:19 33.99176 -117.83778 8017 ft 277 kts 262°
2026-04-21 01:19 33.98953 -117.86075 7741 ft 281 kts 262°
2026-04-21 01:19 33.98724 -117.88420 7304 ft 280 kts 262°
2026-04-21 01:20 33.98500 -117.90717 6922 ft 277 kts 262°
2026-04-21 01:20 33.98272 -117.93036 6530 ft 275 kts 262°
2026-04-21 01:20 33.98048 -117.95294 6146 ft 273 kts 262°
2026-04-21 01:20 33.97831 -117.97523 6004 ft 268 kts 263°
2026-04-21 01:21 33.97617 -117.99783 5942 ft 270 kts 262°
2026-04-21 01:21 33.97399 -118.02031 5875 ft 272 kts 263°
2026-04-21 01:21 33.97176 -118.04304 5580 ft 273 kts 262°
2026-04-21 01:21 33.96952 -118.06562 5258 ft 271 kts 262°
2026-04-21 01:22 33.96729 -118.08798 4914 ft 269 kts 262°
2026-04-21 01:22 33.96508 -118.11014 4559 ft 267 kts 262°
2026-04-21 01:22 33.96287 -118.13219 4200 ft 265 kts 262°
2026-04-21 01:22 33.96067 -118.15409 3836 ft 260 kts 262°
2026-04-21 01:23 33.95854 -118.17518 3488 ft 254 kts 262°
2026-04-21 01:23 33.95643 -118.19623 3146 ft 247 kts 262°
2026-04-21 01:23 33.95437 -118.21638 2848 ft 232 kts 262°
2026-04-21 01:23 33.95248 -118.23491 2500 ft 217 kts 263°
2026-04-21 01:24 33.95073 -118.25209 2234 ft 192 kts 264°
2026-04-21 01:24 33.94920 -118.26698 1999 ft 170 kts 264°
2026-04-21 01:24 33.94787 -118.28037 1780 ft 150 kts 264°
2026-04-21 01:24 33.94674 -118.29213 1581 ft 135 kts 262°
2026-04-21 01:25 33.94560 -118.30273 1377 ft 121 kts 262°
2026-04-21 01:25 33.94458 -118.31255 1226 ft 116 kts 262°
2026-04-21 01:25 33.94358 -118.32236 1092 ft 117 kts 263°
2026-04-21 01:25 33.94257 -118.33214 948 ft 118 kts 263°
2026-04-21 01:26 33.94157 -118.34187 795 ft 117 kts 264°
2026-04-21 01:26 33.94061 -118.35170 649 ft 116 kts 264°
2026-04-21 01:26 33.93966 -118.36142 497 ft 119 kts 264°
2026-04-21 01:26 33.93855 -118.37141 330 ft 120 kts 263°
2026-04-21 01:27 33.93750 -118.38132 164 ft 117 kts 264°
2026-04-21 01:27 33.93658 -118.39051 106 ft 98 kts 262°
2026-04-21 01:27 33.93594 -118.39673 112 ft 52 kts 263°
2026-04-21 01:27 33.93556 -118.39983 117 ft 31 kts 258°
2026-04-21 01:28 33.93499 -118.40180 119 ft 12 kts 236°
2026-04-21 01:28 33.93440 -118.40201 120 ft 9 kts 146°
2026-04-21 01:28 33.93427 -118.40183 120 ft 0 kts 116°
2026-04-21 01:29 33.93425 -118.40176 119 ft 2 kts 107°
2026-04-21 01:29 33.93425 -118.40125 119 ft 8 kts 82°
2026-04-21 01:30 33.93434 -118.40041 118 ft 11 kts 84°
2026-04-21 01:30 33.93446 -118.39932 116 ft 14 kts 84°
2026-04-21 01:30 33.93459 -118.39793 114 ft 18 kts 83°
2026-04-21 01:30 33.93475 -118.39631 112 ft 21 kts 85°
2026-04-21 01:31 33.93493 -118.39459 110 ft 14 kts 82°
2026-04-21 01:31 33.93459 -118.39376 109 ft 11 kts 160°
2026-04-21 01:31 33.93397 -118.39397 109 ft 5 kts 229°
2026-04-21 01:31 33.93393 -118.39443 110 ft 5 kts 269°
2026-04-21 01:32 33.93408 -118.39477 110 ft 2 kts 356°
2026-04-21 01:32 33.93420 -118.39467 110 ft 2 kts 71°
2026-04-21 01:32 33.93421 -118.39451 110 ft 0 kts 89°